Ashtabula, OH

7:59 AM EDT on March 28, 2017 (GMT -0400)
Ashtabula County

Weather History for KHZY - February, 2013

Change the Weather History Date:

Tuesday, February 26, 2013

  Actual Average (KGKJ) Record (KGKJ)
Temperature  
Mean Temperature 32 °F -  
Max Temperature 39 °F 33 °F 67 °F (1957)
Min Temperature 26 °F 16 °F -22 °F (1963)
Degree Days  
Heating Degree Days 32    
Moisture  
Dew Point 26 °F    
Average Humidity 72    
Maximum Humidity 82    
Minimum Humidity 54    
Precipitation  
Precipitation 0.59 in - - ()
Sea Level Pressure  
Sea Level Pressure 29.82 in    
Wind  
Wind Speed 10 mph (ESE)    
Max Wind Speed 18 mph    
Max Gust Speed 29 mph    
Visibility 8 miles    
Events Rain    
Averages and records for this station are not official NWS values.
T = Trace of Precipitation, MM = Missing Value Source: NWS Daily Summary

Daily Weather History Graph

Daily Weather History Graph

Search for Another Location

Airport or City:

Trip Planner

Search our weather history database for the weather conditions in past years. The results will help you decide how hot, cold, wet, or windy it might be!

Date:

Astronomy

Feb. 26, 2013 Rise Set
Actual Time 7:01 AM EST 6:09 PM EST
Civil Twilight 6:33 AM EST 6:37 PM EST
Nautical Twilight 6:01 AM EST 7:10 PM EST
Astronomical Twilight 5:29 AM EST 7:42 PM EST
Moon 7:26 PM EST (2/26) 7:02 AM EST (2/26)
Length of Visible Light 12h 03m
Length of Day
11h 07m
Full, 99% of the Moon is Illuminated
Feb 26
Full
Mar 4
Last Quarter
Mar 11
New
Mar 19
First Quarter
Mar 27
Full

Hourly Weather History & Observations

Time (EST) Temp. Windchill Dew Point Humidity Pressure Visibility Wind Dir Wind Speed Gust Speed Precip Events Conditions
12:53 AM 26.1 °F 21.9 °F 18.0 °F 71% 30.13 in 10.0 mi East 3.5 mph - N/A   Clear
1:53 AM 27.0 °F 23.0 °F 18.0 °F 69% 30.12 in 10.0 mi East 3.5 mph - N/A   Clear
2:53 AM 26.1 °F 20.5 °F 18.0 °F 71% 30.09 in 10.0 mi ESE 4.6 mph - N/A   Clear
3:53 AM 28.9 °F 21.1 °F 18.0 °F 64% 30.07 in 10.0 mi ESE 8.1 mph - N/A   Clear
4:53 AM 30.0 °F 24.1 °F 19.0 °F 64% 30.04 in 10.0 mi East 5.8 mph - N/A   Clear
5:53 AM 30.0 °F 22.4 °F 19.9 °F 66% 30.02 in 10.0 mi East 8.1 mph - N/A   Clear
6:53 AM 32.0 °F 24.2 °F 19.9 °F 61% 30.02 in 10.0 mi SE 9.2 mph - N/A   Clear
7:53 AM 33.1 °F 24.9 °F 21.0 °F 61% 30.00 in 10.0 mi ESE 10.4 mph - N/A   Clear
8:53 AM 34.0 °F 26.0 °F 21.0 °F 59% 30.00 in 10.0 mi ESE 10.4 mph - N/A   Clear
9:53 AM 36.0 °F 26.7 °F 21.9 °F 57% 29.96 in 10.0 mi ESE 15.0 mph - N/A   Clear
10:53 AM 37.0 °F 28.5 °F 21.9 °F 54% 29.93 in 10.0 mi ESE 13.8 mph - N/A   Clear
11:53 AM 39.0 °F 31.0 °F 24.1 °F 55% 29.91 in 10.0 mi ESE 13.8 mph - N/A   Scattered Clouds
12:53 PM 39.0 °F 32.3 °F 26.1 °F 60% 29.85 in 10.0 mi ESE 10.4 mph - 0.00 in Rain Light Rain
1:53 PM 37.9 °F 28.9 °F 27.0 °F 65% 29.81 in 9.0 mi SE 16.1 mph 24.2 mph 0.00 in Rain Light Rain
2:53 PM 37.0 °F 28.1 °F 28.0 °F 70% 29.78 in 9.0 mi ESE 15.0 mph 24.2 mph 0.02 in Rain Light Rain
3:53 PM 36.0 °F 26.7 °F 28.9 °F 76% 29.75 in 5.0 mi ESE 15.0 mph 25.3 mph 0.04 in Rain Rain
4:53 PM 35.1 °F 25.9 °F 28.9 °F 78% 29.73 in 2.5 mi ESE 13.8 mph 23.0 mph 0.14 in Rain Heavy Rain
5:02 PM 35.6 °F 26.6 °F 28.4 °F 75% 29.70 in 4.0 mi SE 13.8 mph 23.0 mph 0.03 in Rain Rain
5:17 PM 35.6 °F 26.6 °F 30.2 °F 81% 29.70 in 3.0 mi SE 13.8 mph 23.0 mph 0.07 in Rain Light Rain
5:53 PM 35.1 °F 25.9 °F 30.0 °F 82% 29.72 in 3.0 mi SE 13.8 mph - 0.13 in Rain Rain
6:35 PM 35.6 °F 27.5 °F 30.2 °F 81% 29.68 in 4.0 mi SE 11.5 mph 21.9 mph 0.11 in Rain Rain
6:53 PM 36.0 °F 26.7 °F 30.9 °F 82% 29.70 in 8.0 mi SE 15.0 mph 23.0 mph 0.11 in Rain Light Rain
7:53 PM 35.1 °F 24.5 °F 30.0 °F 82% 29.67 in 4.0 mi ESE 18.4 mph 28.8 mph 0.08 in Rain Light Rain
8:20 PM 35.6 °F 25.9 °F 30.2 °F 81% 29.63 in 8.0 mi ESE 16.1 mph 21.9 mph 0.03 in Rain Light Rain
8:42 PM 35.6 °F 25.5 °F 30.2 °F 81% 29.63 in 7.0 mi ESE 17.3 mph 24.2 mph 0.04 in Rain Light Rain
8:53 PM 36.0 °F 26.3 °F 30.9 °F 82% 29.65 in 8.0 mi ESE 16.1 mph 24.2 mph 0.05 in Rain Light Rain
9:43 PM 35.6 °F 26.2 °F 30.2 °F 81% 29.61 in 10.0 mi ESE 15.0 mph 23.0 mph 0.02 in   Overcast
9:53 PM 36.0 °F 26.7 °F 30.9 °F 82% 29.63 in 10.0 mi SE 15.0 mph 23.0 mph 0.02 in   Overcast
10:53 PM 37.0 °F 28.9 °F 30.9 °F 79% 29.60 in 8.0 mi SE 12.7 mph 23.0 mph 0.00 in   Overcast
11:53 PM 37.9 °F 30.9 °F 30.9 °F 76% 29.58 in 10.0 mi SE 10.4 mph 19.6 mph 0.00 in   Overcast